�������l�o���
Date,Time,MP-1(��Sv/h),MP-2(��Sv/h),MP-3(��Sv/h),MP-4(��Sv/h),MP-5(��Sv/h),MP-6(��Sv/h),MP-7(��Sv/h),MP-8(��Sv/h),����,����(m/s),���J
2020/05/14,00:00,0.715,1.036,0.679,1.263,0.900,0.401,0.703,0.663,���쐼,2.3,��
2020/05/14,00:10,0.717,1.035,0.678,1.265,0.900,0.401,0.704,0.663,�쐼,2.5,��
2020/05/14,00:20,0.716,1.036,0.679,1.262,0.899,0.401,0.704,0.663,���쐼,2.8,��
2020/05/14,00:30,0.716,1.033,0.680,1.264,0.900,0.401,0.705,0.663,���쐼,4.1,��
2020/05/14,00:40,0.717,1.031,0.678,1.261,0.898,0.401,0.706,0.662,���쐼,5.3,��
2020/05/14,00:50,0.717,1.033,0.678,1.263,0.899,0.400,0.705,0.665,���쐼,6.0,��
2020/05/14,01:00,0.715,1.035,0.680,1.264,0.899,0.401,0.705,0.663,���쐼,4.6,��
2020/05/14,01:10,0.714,1.035,0.678,1.264,0.898,0.403,0.706,0.663,���쐼,3.4,��
2020/05/14,01:20,0.714,1.033,0.678,1.262,0.901,0.401,0.704,0.663,��,4.3,��
2020/05/14,01:30,0.715,1.033,0.677,1.261,0.900,0.401,0.705,0.663,���쐼,4.1,��
2020/05/14,01:40,0.714,1.033,0.678,1.262,0.899,0.401,0.706,0.663,��,4.6,��
2020/05/14,01:50,0.716,1.034,0.678,1.262,0.900,0.403,0.704,0.663,���k��,4.4,��
2020/05/14,02:00,0.715,1.035,0.678,1.264,0.899,0.402,0.705,0.662,��,4.2,��
2020/05/14,02:10,0.714,1.033,0.679,1.264,0.899,0.403,0.704,0.663,���k��,3.7,��
2020/05/14,02:20,0.717,1.033,0.678,1.264,0.896,0.402,0.704,0.664,���k��,2.3,��
2020/05/14,02:30,0.716,1.033,0.676,1.262,0.900,0.402,0.705,0.663,���k��,2.3,��
2020/05/14,02:40,0.716,1.033,0.677,1.261,0.899,0.401,0.705,0.663,���쐼,3.4,��
2020/05/14,02:50,0.715,1.032,0.678,1.264,0.897,0.403,0.705,0.661,���쐼,4.5,��
2020/05/14,03:00,0.715,1.032,0.677,1.262,0.898,0.403,0.706,0.661,���쐼,4.4,��
2020/05/14,03:10,0.715,1.035,0.677,1.263,0.900,0.401,0.704,0.663,���쐼,3.9,��
2020/05/14,03:20,0.715,1.034,0.678,1.265,0.899,0.402,0.705,0.663,��쐼,3.2,��
2020/05/14,03:30,0.715,1.032,0.678,1.264,0.898,0.401,0.702,0.663,�쐼,3.6,��
2020/05/14,03:40,0.715,1.035,0.678,1.263,0.899,0.402,0.704,0.664,��쐼,3.5,��
2020/05/14,03:50,0.716,1.033,0.678,1.263,0.899,0.403,0.704,0.663,�쐼,3.6,��
2020/05/14,04:00,0.717,1.033,0.677,1.264,0.898,0.403,0.704,0.664,���쐼,5.1,��
2020/05/14,04:10,0.716,1.032,0.677,1.263,0.901,0.402,0.704,0.663,���쐼,2.2,��
2020/05/14,04:20,0.715,1.031,0.676,1.261,0.898,0.402,0.706,0.663,�k��,2.8,��
2020/05/14,04:30,0.715,1.035,0.677,1.264,0.901,0.403,0.704,0.663,���쐼,0.6,��
2020/05/14,04:40,0.717,1.035,0.676,1.263,0.899,0.402,0.703,0.663,��,1.7,��
2020/05/14,04:50,0.714,1.034,0.677,1.263,0.897,0.403,0.704,0.662,��,0.9,��
2020/05/14,05:00,0.714,1.033,0.677,1.264,0.899,0.402,0.706,0.664,���쐼,3.3,��
2020/05/14,05:10,0.715,1.032,0.677,1.262,0.898,0.402,0.705,0.662,���쐼,3.6,��
2020/05/14,05:20,0.715,1.033,0.678,1.264,0.899,0.403,0.704,0.662,���쐼,3.3,��
2020/05/14,05:30,0.713,1.032,0.679,1.264,0.899,0.402,0.704,0.664,���쐼,2.8,��
2020/05/14,05:40,0.714,1.033,0.680,1.263,0.902,0.402,0.706,0.663,���쐼,1.5,��
2020/05/14,05:50,0.715,1.034,0.677,1.263,0.899,0.402,0.703,0.663,��,2.0,��
2020/05/14,06:00,0.717,1.036,0.678,1.262,0.899,0.403,0.704,0.663,���쐼,2.9,��
2020/05/14,06:10,0.715,1.034,0.679,1.264,0.898,0.404,0.704,0.664,���쐼,3.8,��
2020/05/14,06:20,0.716,1.035,0.679,1.265,0.899,0.403,0.707,0.665,��,4.0,��
2020/05/14,06:30,0.718,1.033,0.678,1.264,0.900,0.403,0.706,0.661,���쐼,2.6,��
2020/05/14,06:40,0.716,1.034,0.679,1.262,0.898,0.404,0.706,0.664,-,CALM,��
2020/05/14,06:50,0.716,1.031,0.678,1.265,0.898,0.402,0.706,0.665,���쓌,2.9,��
2020/05/14,07:00,0.716,1.034,0.677,1.263,0.901,0.402,0.707,0.665,�쓌,2.6,��
2020/05/14,07:10,0.714,1.033,0.678,1.264,0.900,0.400,0.706,0.664,�쓌,2.5,��
2020/05/14,07:20,0.717,1.034,0.679,1.264,0.898,0.401,0.708,0.663,�쓌,3.4,��
2020/05/14,07:30,0.715,1.033,0.677,1.265,0.899,0.401,0.706,0.665,�쓌,3.3,��
2020/05/14,07:40,0.716,1.033,0.678,1.267,0.899,0.401,0.705,0.664,���쓌,3.5,��
2020/05/14,07:50,0.715,1.031,0.677,1.263,0.900,0.400,0.706,0.664,���쓌,2.5,��
2020/05/14,08:00,0.718,1.032,0.678,1.264,0.899,0.401,0.705,0.664,��,2.5,��
2020/05/14,08:10,0.715,1.033,0.679,1.265,0.903,0.403,0.705,0.662,���쓌,2.2,��
2020/05/14,08:20,0.715,1.032,0.677,1.265,0.898,0.401,0.707,0.662,���쓌,2.3,��
2020/05/14,08:30,0.715,1.032,0.678,1.265,0.899,0.403,0.706,0.662,��,2.2,��
2020/05/14,08:40,0.713,1.028,0.677,1.265,0.898,0.402,0.706,0.662,�쓌,2.9,��
2020/05/14,08:50,0.715,1.033,0.678,1.266,0.900,0.402,0.706,0.662,��쓌,3.1,��
2020/05/14,09:00,0.716,1.029,0.678,1.268,0.899,0.400,0.705,0.660,�쓌,2.9,��
2020/05/14,09:10,0.715,1.033,0.676,1.267,0.901,0.402,0.706,0.662,�쓌,3.0,��
2020/05/14,09:20,0.717,1.030,0.677,1.265,0.899,0.400,0.703,0.662,�쓌,3.4,��
2020/05/14,09:30,0.714,1.031,0.678,1.266,0.898,0.401,0.705,0.662,�쓌,3.0,��
2020/05/14,09:40,0.716,1.031,0.678,1.265,0.900,0.402,0.704,0.662,�쓌,3.1,��
2020/05/14,09:50,0.716,1.033,0.675,1.267,0.900,0.401,0.704,0.661,��쓌,3.2,��
2020/05/14,10:00,0.716,1.031,0.676,1.267,0.900,0.402,0.706,0.661,��쓌,2.6,��
2020/05/14,10:10,0.717,1.028,0.679,1.266,0.899,0.402,0.706,0.660,��,2.8,��
2020/05/14,10:20,0.717,1.032,0.678,1.266,0.901,0.402,0.705,0.661,�쓌,3.0,��
2020/05/14,10:30,0.716,1.033,0.677,1.266,0.900,0.401,0.705,0.662,�쓌,4.4,��
2020/05/14,10:40,0.717,1.033,0.679,1.268,0.902,0.401,0.705,0.662,��쓌,5.8,��
2020/05/14,10:50,0.716,1.034,0.679,1.268,0.902,0.401,0.703,0.661,�쓌,6.6,��
2020/05/14,11:00,0.717,1.034,0.677,1.266,0.901,0.403,0.705,0.661,��쓌,5.7,��
2020/05/14,11:10,0.718,1.035,0.679,1.262,0.902,0.403,0.706,0.660,��쓌,5.3,��
2020/05/14,11:20,0.720,1.034,0.679,1.262,0.901,0.403,0.707,0.663,��쓌,5.3,��
2020/05/14,11:30,0.718,1.031,0.680,1.262,0.902,0.402,0.707,0.663,�쓌,4.5,��
2020/05/14,11:40,0.717,1.032,0.679,1.265,0.903,0.403,0.707,0.661,�쓌,4.4,��
2020/05/14,11:50,0.719,1.035,0.680,1.265,0.903,0.403,0.707,0.662,�쓌,5.7,��
2020/05/14,12:00,0.720,1.035,0.679,1.264,0.903,0.401,0.706,0.661,�쓌,6.2,��
2020/05/14,12:10,0.721,1.039,0.679,1.265,0.904,0.403,0.706,0.662,�쓌,4.3,��
2020/05/14,12:20,0.719,1.039,0.679,1.265,0.905,0.401,0.705,0.663,�쓌,3.9,��
2020/05/14,12:30,0.719,1.039,0.680,1.267,0.907,0.403,0.707,0.662,�쓌,5.2,��
2020/05/14,12:40,0.719,1.041,0.679,1.267,0.904,0.403,0.707,0.662,�쓌,5.3,��
2020/05/14,12:50,0.719,1.039,0.680,1.266,0.904,0.402,0.707,0.663,�쓌,5.1,��
2020/05/14,13:00,0.716,1.038,0.680,1.267,0.907,0.404,0.708,0.662,�쓌,3.7,��
2020/05/14,13:10,0.719,1.041,0.679,1.265,0.904,0.402,0.707,0.662,�쓌,4.9,��
2020/05/14,13:20,0.722,1.037,0.680,1.265,0.907,0.401,0.707,0.663,��쓌,6.0,��
2020/05/14,13:30,0.720,1.034,0.681,1.267,0.907,0.405,0.707,0.662,��쓌,5.2,��
2020/05/14,13:40,0.719,1.038,0.680,1.269,0.907,0.404,0.707,0.663,�쓌,5.5,��
2020/05/14,13:50,0.718,1.035,0.680,1.266,0.905,0.405,0.706,0.661,�쓌,6.4,��
2020/05/14,14:00,0.718,1.037,0.680,1.267,0.906,0.405,0.706,0.663,�쓌,6.9,��
2020/05/14,14:10,0.716,1.036,0.681,1.264,0.907,0.404,0.706,0.661,�쓌,5.1,��
2020/05/14,14:20,0.719,1.039,0.680,1.269,0.908,0.405,0.706,0.661,�쓌,6.0,��
2020/05/14,14:30,0.718,1.036,0.680,1.267,0.906,0.405,0.708,0.664,�쓌,6.5,��
2020/05/14,14:40,0.718,1.039,0.680,1.267,0.906,0.405,0.705,0.662,�쓌,6.0,��
2020/05/14,14:50,0.718,1.036,0.680,1.265,0.908,0.404,0.707,0.663,�쓌,6.2,��
2020/05/14,15:00,0.719,1.039,0.681,1.267,0.905,0.405,0.707,0.663,�쓌,9.1,��
2020/05/14,15:10,0.720,1.039,0.680,1.266,0.906,0.405,0.707,0.663,��쓌,6.8,��
2020/05/14,15:20,0.718,1.038,0.681,1.268,0.905,0.405,0.707,0.664,�쓌,7.3,��
2020/05/14,15:30,0.719,1.041,0.680,1.267,0.907,0.405,0.707,0.662,��쓌,7.3,��
2020/05/14,15:40,0.720,1.042,0.679,1.267,0.907,0.405,0.706,0.662,�쓌,7.9,��
2020/05/14,15:50,0.720,1.043,0.680,1.269,0.906,0.406,0.707,0.663,�쓌,9.1,��
2020/05/14,16:00,0.720,1.042,0.682,1.269,0.905,0.405,0.706,0.663,��쓌,8.6,��
2020/05/14,16:10,0.720,1.042,0.680,1.268,0.907,0.404,0.707,0.664,�쓌,8.7,��
2020/05/14,16:20,0.719,1.040,0.682,1.269,0.906,0.405,0.707,0.662,��쓌,7.8,��
2020/05/14,16:30,0.719,1.041,0.680,1.267,0.906,0.404,0.706,0.663,��쓌,8.1,��
2020/05/14,16:40,0.721,1.040,0.683,1.267,0.907,0.406,0.706,0.662,��쓌,9.2,��
2020/05/14,16:50,0.719,1.040,0.682,1.269,0.904,0.407,0.707,0.661,��쓌,7.7,��
2020/05/14,17:00,0.721,1.042,0.682,1.268,0.907,0.407,0.706,0.662,��,8.6,��
2020/05/14,17:10,0.720,1.041,0.681,1.268,0.909,0.408,0.707,0.663,��,8.6,��
2020/05/14,17:20,0.721,1.043,0.681,1.268,0.906,0.407,0.707,0.663,��,6.9,��
2020/05/14,17:30,0.720,1.046,0.679,1.268,0.906,0.407,0.705,0.662,��,7.4,��
2020/05/14,17:40,0.721,1.044,0.681,1.267,0.906,0.407,0.707,0.665,��,6.8,��
2020/05/14,17:50,0.719,1.045,0.682,1.267,0.906,0.407,0.706,0.665,��,7.4,��
2020/05/14,18:00,0.720,1.045,0.680,1.269,0.906,0.407,0.705,0.666,��,7.3,��
2020/05/14,18:10,0.720,1.046,0.680,1.268,0.905,0.405,0.706,0.666,��,6.7,��
2020/05/14,18:20,0.718,1.046,0.678,1.271,0.906,0.407,0.705,0.666,��쓌,4.7,��
2020/05/14,18:30,0.720,1.045,0.680,1.269,0.906,0.408,0.706,0.665,��쓌,7.2,��
2020/05/14,18:40,0.721,1.045,0.679,1.270,0.907,0.406,0.706,0.664,��쓌,7.3,��
2020/05/14,18:50,0.721,1.043,0.679,1.271,0.906,0.407,0.704,0.664,��,7.5,��
2020/05/14,19:00,0.720,1.044,0.680,1.270,0.906,0.407,0.705,0.664,��,6.4,��
2020/05/14,19:10,0.720,1.045,0.680,1.271,0.906,0.407,0.704,0.663,��,4.9,��
2020/05/14,19:20,0.722,1.046,0.682,1.270,0.907,0.408,0.705,0.664,��,3.1,��
2020/05/14,19:30,0.720,1.044,0.682,1.271,0.909,0.407,0.707,0.664,��,2.3,��
2020/05/14,19:40,0.723,1.044,0.681,1.269,0.908,0.407,0.706,0.665,��쓌,2.9,��
2020/05/14,19:50,0.721,1.046,0.683,1.271,0.907,0.407,0.706,0.663,��,1.5,��
2020/05/14,20:00,0.722,1.045,0.681,1.270,0.908,0.408,0.707,0.664,��,1.7,��
2020/05/14,20:10,0.722,1.046,0.681,1.269,0.909,0.408,0.707,0.665,��쓌,1.4,��
2020/05/14,20:20,0.721,1.043,0.681,1.269,0.908,0.407,0.707,0.663,��,2.2,��
2020/05/14,20:30,0.722,1.043,0.682,1.268,0.908,0.407,0.708,0.665,��,2.9,��
2020/05/14,20:40,0.720,1.046,0.682,1.271,0.907,0.409,0.707,0.663,��,3.4,��
2020/05/14,20:50,0.721,1.045,0.683,1.268,0.908,0.407,0.706,0.665,��,2.3,��
2020/05/14,21:00,0.721,1.042,0.682,1.270,0.909,0.406,0.707,0.664,���k��,1.5,��
2020/05/14,21:10,0.722,1.043,0.681,1.268,0.907,0.406,0.705,0.664,-,CALM,��
2020/05/14,21:20,0.721,1.043,0.681,1.270,0.908,0.408,0.706,0.664,��,1.5,��
2020/05/14,21:30,0.719,1.042,0.681,1.272,0.907,0.406,0.706,0.665,���k��,1.1,��
2020/05/14,21:40,0.722,1.041,0.680,1.271,0.906,0.408,0.708,0.664,���k��,0.9,��
2020/05/14,21:50,0.722,1.042,0.680,1.271,0.909,0.409,0.707,0.664,��,1.2,��
2020/05/14,22:00,0.720,1.043,0.682,1.269,0.907,0.408,0.706,0.664,���k��,1.1,��
2020/05/14,22:10,0.721,1.042,0.682,1.271,0.907,0.407,0.707,0.665,�k,0.8,��
2020/05/14,22:20,0.721,1.041,0.680,1.268,0.906,0.406,0.707,0.665,��쓌,0.9,��
2020/05/14,22:30,0.721,1.042,0.681,1.267,0.907,0.407,0.706,0.666,��,1.7,��
2020/05/14,22:40,0.720,1.043,0.681,1.271,0.908,0.407,0.707,0.663,��,2.3,��
2020/05/14,22:50,0.723,1.040,0.680,1.270,0.905,0.406,0.707,0.664,��쓌,1.7,��
2020/05/14,23:00,0.720,1.043,0.681,1.269,0.905,0.405,0.706,0.665,��쓌,0.9,��
2020/05/14,23:10,0.719,1.039,0.682,1.268,0.905,0.407,0.708,0.664,�k,1.4,��
2020/05/14,23:20,0.721,1.040,0.681,1.269,0.907,0.408,0.705,0.663,�k,2.3,��
2020/05/14,23:30,0.722,1.040,0.682,1.269,0.906,0.406,0.707,0.664,�k��,2.3,��
2020/05/14,23:40,0.719,1.041,0.679,1.268,0.906,0.406,0.705,0.664,���k��,2.0,��
2020/05/14,23:50,0.720,1.040,0.682,1.269,0.906,0.406,0.708,0.664,-,CALM,��
